STARLINK-32825, 62825

Orbit data source: Space-Track

STARLINK-32825, 62825 is a payload satellite owned by SpaceX/Seattle (US) in LEO that was launched on Fri, 24 Jan 2025 UTC via an FALCON 9 launch vehicle from the Air Force Western Test Range (AFWTR). Payload-class satellites include a variety of spacecraft equipped with specific instruments for various scientific and technological missions. These include communications satellites like Starlink; space stations such as the ISS; scientific satellites like the Hubble; Earth observation satellites from companies like Planet Labs, Umbra, and HawkEye 360; GPS; miniature CubeSats for education and research; and military/defense satellites.

Loading next visibility...
Identifier
62825, 2025-018V
Orbit
LEO
Country
Flag of USUS
Related business
Manufacturer
SpaceX/Seattle
Mission
Operational Commercial Communications
Bus & Motor
STARLINK V2M, Unknown motor
Mass
730 kg wet, ~700 kg dry
Launch date (UTC)
2025-01-24 (9 months ago)
Launch vehicle
FALCON 9
Launch site
Air Force Western Test Range (AFWTR)
Object type
Payload
Rocket body
Debris
Shape & HBR
Box + 2 Pan, 17.7 m
Radar Cross Section
33.884 m², Large (>1 m²)

Expand to show TLE details & history
Last TLE update: 8 hours ago

TLE from 8 hours ago
0 STARLINK-32825
1 62825U 25018V   25290.90380225  .00060274  00000-0  20280-2 0  9999
2 62825  53.1577 250.2330 0001443  94.8288 265.2878 15.30243827 41344
Epoch: 2025-10-17T21:41Z
TLE epoch observation values (Epoch: 2025-10-17T21:41:28.514Z)
Latitude
0.00002°
Longitude
-101.77828°
Altitude
476.065 km
Speed
7.629 km/s
True Right ascension
16h 40m 55s
True Declination
0° 00' 00"
Sunlit
Object was in daylight at epoch
Visualization orbit readout
Latitude
Unknown
Longitude
Unknown
Altitude
Unknown
Speed
Unknown
Apparent Right ascension
Unknown
Apparent Declination
Unknown
Sunlit
N/A
Visualization observer readout
Local Sidereal Time
00:34:50
Azimuth
Unknown
Elevation
Unknown
Doppler factor
Unknown
Orbital elements
Apogee altitude
476.33 km
Perigee altitude
474.352 km
Semi-major axis
6,853.478 km
Eccentricity
0.00014
Inclination
53.1577°
RAAN
250.233°
Arg. of periapsis
94.8288°
True anomaly
265.27132°
Mean anomaly
265.2878°
Eccentric anomaly
265.27956°
Mean motion
3.8254 °/min
Orbital period
94.11 mins
BSTAR
0.002028
Loading maneuver chart data...
Computing Atmospheric mass density...
Loading historical data...
Loading historical data...
Loading historical data...
Loading historical data...
Loading historical data...
Loading historical data...
Loading historical data...

Documentation

Showing up to 5 results
|